This is the latest recevied weather packets stored in our database for station/object IN3XSV-13. If no packets are shown the sender has not sent any weather packets the latest 10 day(s).
| Time | Temp. | Humidity | Pressure | Rain* | Wind** | Luminosity | Snow |
|---|---|---|---|---|---|---|---|
| 1777369146 | 18.89° C | 67% | 9955.8 hPa | 0 mm | - | - | - |
| 1777368846 | 18.89° C | 68% | 9955.8 hPa | 0 mm | - | - | - |
| 1777368546 | 18.33° C | 68% | 9955.9 hPa | 0 mm | - | - | - |
| 1777368246 | 17.78° C | 68% | 9956 hPa | 0 mm | - | - | - |
| 1777367946 | 17.78° C | 69% | 9955.8 hPa | 0 mm | - | - | - |
| 1777367647 | 18.33° C | 71% | 9956 hPa | 0 mm | - | - | - |
| 1777367346 | 18.33° C | 70% | 9956.1 hPa | 0 mm | - | - | - |
| 1777367046 | 18.89° C | 69% | 9956.2 hPa | 0 mm | - | - | - |
| 1777366746 | 18.89° C | 70% | 9956.2 hPa | 0 mm | - | - | - |
| 1777366446 | 18.89° C | 69% | 9956.4 hPa | 0 mm | - | - | - |
| 1777366147 | 19.44° C | 71% | 9956.3 hPa | 0 mm | - | - | - |
| 1777365847 | 18.89° C | 72% | 9956.4 hPa | 0 mm | - | - | - |
| 1777365547 | 18.89° C | 72% | 9956.3 hPa | 0 mm | - | - | - |
| 1777365247 | 19.44° C | 74% | 9956.2 hPa | 0 mm | - | - | - |
| 1777364946 | 18.89° C | 75% | 9956.2 hPa | 0 mm | - | - | - |
| 1777364647 | 17.78° C | 76% | 9956.2 hPa | 0 mm | - | - | - |
| 1777364347 | 17.78° C | 79% | 9956.2 hPa | 0 mm | - | - | - |
| 1777364047 | 16.11° C | 82% | 9956.1 hPa | 0 mm | - | - | - |
| 1777363747 | 15.56° C | 82% | 9956 hPa | 0 mm | - | - | - |
| 1777363447 | 15.56° C | 83% | 9956 hPa | 0 mm | - | - | - |
| 1777363147 | 15° C | 83% | 9956.1 hPa | 0 mm | - | - | - |
| 1777362847 | 15° C | 83% | 9956.1 hPa | 0 mm | - | - | - |
| 1777362547 | 14.44° C | 83% | 9956 hPa | 0 mm | - | - | - |
| 1777362247 | 14.44° C | 83% | 9956.1 hPa | 0 mm | - | - | - |
| 1777361947 | 14.44° C | 82% | 9956 hPa | 0 mm | - | - | - |
* Rain latest hour (hover to see other rain measurements)
** Current wind speed in m/s (hover to see current wind gust speed)